Flag for Dominican Republic Weather past 2 weeks in Punta Cana, Dominican Republic

Now
86 °F

Scattered clouds.


Feels Like: 95 °F
Forecast: 79 / 86 °F
Wind: 12 mph from Southeast

Location: Punta Cana

Current Time: Jun 30, 2015 at 11:31:23 AM

Latest Report: Jun 30, 2015 at 11:00 AM


Visibility: N/A

Pressure: 30.12 "Hg

Humidity: 70%

Dew point: 75 °F

Location of Punta CanaLocation

Historic Weather in Punta Cana — Graph

°F

Punta Cana temperature yesterday

Maximum temperature yesterday: 88 °F (at 1:00 PM)
Minimum temperature yesterday: 81 °F (at 5:00 AM)
Average temperature yesterday: 84 °F

Past Weeks' High & Low Weather Summary

 TemperatureHumidityPressure
High90 °F (Jun 16, 2:00 PM)100% (Jun 23, 3:00 AM)30.23 "Hg (Jun 23, 3:00 AM)
Low72 °F (Jun 23, 3:00 AM)52% (Jun 16, 2:00 PM)29.89 "Hg (Jun 26, 11:00 PM)
Average83 °F79%30.08 "Hg
* Reported Jun 15 10:00 AM — Jun 30 10:00 AM, Punta Cana, Weather by CustomWeather, © 2015

Note: Actual official high and low records may vary slightly from our data, if they occured in-between our weather recording intervals... More about our weather records

Advertising

Punta Cana weather history for previous 24 hours

 ConditionsComfort  
Time TempWeatherWind HumidityBarometerVisibility
10:00 AM
Tue, Jun 30
86 °FScattered clouds.12 mph66%30.12 "HgN/A
9:00 AM84 °FScattered clouds.9 mph74%30.09 "HgN/A
8:00 AM79 °FScattered clouds.7 mph89%30.12 "HgN/A
7:00 AM75 °FScattered showers. Partly sunny.5 mph94%30.09 "Hg5 mi
6:00 AM81 °FScattered clouds.6 mph79%30.07 "HgN/A
5:00 AM81 °FPassing clouds.7 mph79%30.07 "HgN/A
4:00 AM81 °FPassing clouds.12 mph84%30.07 "HgN/A
3:00 AM81 °FPassing clouds.12 mph79%30.07 "HgN/A
2:00 AM81 °FPassing clouds.12 mph79%30.07 "HgN/A
1:00 AM81 °FPassing clouds.14 mph79%30.09 "HgN/A
12:00 AM81 °FPassing clouds.14 mph84%30.09 "HgN/A
11:00 PM
Mon, Jun 29
81 °FPassing clouds.12 mph84%30.12 "HgN/A
10:00 PM82 °FPassing clouds.12 mph79%30.12 "HgN/A
9:00 PM82 °FPassing clouds.9 mph79%30.09 "HgN/A
8:00 PM82 °FPassing clouds.12 mph79%30.09 "HgN/A
7:00 PM82 °FScattered clouds.9 mph79%30.07 "HgN/A
6:00 PM84 °FScattered clouds.14 mph74%30.07 "HgN/A
5:00 PM86 °FScattered clouds.12 mph66%30.07 "HgN/A
4:00 PM88 °FScattered clouds.15 mph66%30.07 "HgN/A
3:00 PM88 °FScattered clouds.12 mph66%30.09 "HgN/A
2:00 PM88 °FPassing clouds.12 mph66%30.09 "HgN/A
1:00 PM88 °FPassing clouds.12 mph66%30.12 "HgN/A
12:00 PM86 °FPassing clouds.12 mph70%30.15 "HgN/A
11:08 AM86 °FPassing clouds.14 mph66%30.15 "HgN/A
11:00 AM86 °FPassing clouds.14 mph70%30.15 "HgN/A
Weather by CustomWeather, © 2015

See weather overviewHow to use our weather pages